Brookings, SD

11:54 AM CDT on October 15, 2019 (GMT -0500)
Brookings Municipal

Weather History for KBKX - September, 2019

Change the Weather History Date:

Wednesday, September 18, 2019

  Actual Average Record
Temperature  
Mean Temperature 68 °F -  
Max Temperature 75 °F 66 °F 89 °F (1998)
Min Temperature 62 °F 45 °F 39 °F (2010)
Cooling Degree Days 4    
Growing Degree Days 18 (Base 50)    
Moisture  
Dew Point 63 °F    
Average Humidity 79    
Maximum Humidity 97    
Minimum Humidity 61    
Precipitation  
Precipitation 0.00 in - - ()
Sea Level Pressure  
Sea Level Pressure 29.89 in    
Wind  
Wind Speed 13 mph (SW)    
Max Wind Speed 18 mph    
Max Gust Speed 24 mph    
Visibility 10 miles    
Events      
Averages and records for this station are not official NWS values.
T = Trace of Precipitation, MM = Missing Value Source: NWS Daily Summary

Daily Weather History Graph

Daily Weather History Graph

Search for Another Location

Airport or City:

Astronomy

Sep. 18, 2019 Rise Set
Actual Time 7:09 AM CDT 7:32 PM CDT
Civil Twilight 6:40 AM CDT 8:01 PM CDT
Nautical Twilight 6:06 AM CDT 8:35 PM CDT
Astronomical Twilight 5:30 AM CDT 9:10 PM CDT
Moon 9:58 PM CDT (9/18) 11:22 AM CDT (9/18)
Length of Visible Light 13h 21m
Length of Day
12h 22m
Waning Gibbous, 82% of the Moon is Illuminated
Sep 18
Waning Gibbous
Sep 21
Last Quarter
Sep 28
New
Oct 5
First Quarter
Oct 13
Full

Hourly Weather History & Observations

Time (CDT) Temp. Dew Point Humidity Pressure Visibility Wind Dir Wind Speed Gust Speed Precip Events Conditions
12:56 AM 75.0 °F 69.1 °F 82% 29.76 in 10.0 mi SSE 18.4 mph 24.2 mph N/A   Mostly Cloudy
1:56 AM 75.0 °F 69.1 °F 82% 29.76 in 10.0 mi South 16.1 mph - N/A   Clear
2:56 AM 75.0 °F 69.1 °F 82% 29.75 in 10.0 mi South 17.3 mph 23.0 mph N/A   Clear
3:56 AM 73.0 °F 69.1 °F 87% 29.75 in 10.0 mi South 10.4 mph - N/A   Clear
4:56 AM 72.0 °F 69.1 °F 91% 29.76 in 10.0 mi South 11.5 mph - N/A   Clear
5:56 AM 71.1 °F 68.0 °F 90% 29.79 in 10.0 mi South 8.1 mph - N/A   Clear
6:56 AM 69.1 °F 68.0 °F 96% 29.82 in 10.0 mi SSW 8.1 mph - N/A   Clear
7:56 AM 66.0 °F 64.9 °F 96% 29.85 in 10.0 mi WNW 10.4 mph - N/A   Clear
8:56 AM 66.0 °F 59.0 °F 78% 29.88 in 10.0 mi WNW 9.2 mph - N/A   Clear
9:56 AM 66.9 °F 57.9 °F 73% 29.89 in 10.0 mi West 13.8 mph - N/A   Clear
10:56 AM 66.9 °F 55.9 °F 68% 29.91 in 10.0 mi WNW 13.8 mph - N/A   Clear
11:56 AM 70.0 °F 57.0 °F 63% 29.92 in 10.0 mi West 15.0 mph - N/A   Clear
12:56 PM 72.0 °F 57.9 °F 61% 29.93 in 10.0 mi WSW 13.8 mph - N/A   Clear
1:56 PM 73.0 °F 59.0 °F 61% 29.93 in 10.0 mi WSW 12.7 mph - N/A   Clear
2:56 PM 73.9 °F 60.1 °F 62% 29.93 in 10.0 mi WSW 13.8 mph - N/A   Clear
3:56 PM 75.0 °F 61.0 °F 62% 29.92 in 10.0 mi WSW 13.8 mph 21.9 mph N/A   Clear
4:56 PM 75.0 °F 62.1 °F 64% 29.93 in 10.0 mi West 13.8 mph - N/A   Clear
5:56 PM 73.9 °F 62.1 °F 66% 29.93 in 10.0 mi West 10.4 mph - N/A   Clear
6:56 PM 72.0 °F 63.0 °F 73% 29.94 in 10.0 mi WSW 5.8 mph - N/A   Clear
7:56 PM 68.0 °F 62.1 °F 81% 29.97 in 10.0 mi SSW 3.5 mph - N/A   Clear
8:56 PM 68.0 °F 62.1 °F 81% 29.98 in 10.0 mi SE 3.5 mph - N/A   Clear
9:56 PM 62.1 °F 61.0 °F 96% 30.00 in 10.0 mi South 5.8 mph - N/A   Clear
10:56 PM 64.0 °F 63.0 °F 96% 30.00 in 10.0 mi Calm Calm - N/A   Clear
11:56 PM 63.0 °F 62.1 °F 97% 30.01 in 10.0 mi SSE 5.8 mph - N/A   Clear